• In Czech Republic
  • List of Countries
  • For 7 days
  • Water Temperature
  • Satellite Maps
  • Weather Map
  • Weather Widgets
  • user-avatar
    Login

    Hourly Weather Kobyakovo

    Today, 21 April, Saturday

    Time Temperature Precipitation Wind Pressure Humidity
    00:00 +7°C° 0 mm 2 mps 741 mmHg 80%
    01:00 +7°C° 0 mm 3 mps 741 mmHg 82%
    02:00 +7°C° 0 mm 2 mps 741 mmHg 81%
    03:00 +5°C° 0 mm 3 mps 740 mmHg 82%
    04:00 +5°C° 0 mm 3 mps 740 mmHg 82%
    05:00 +5°C° 0 mm 4 mps 739 mmHg 83%
    06:00 +7°C° 0 mm 5 mps 738 mmHg 77%
    07:00 +9°C° 0 mm 6 mps 738 mmHg 71%
    08:00 +11°C° 0 mm 7 mps 737 mmHg 63%
    09:00 +12°C° 0 mm 8 mps 736 mmHg 59%
    10:00 +15°C° 0 mm 8 mps 735 mmHg 55%
    11:00 +16°C° 0 mm 9 mps 735 mmHg 50%
    12:00 +17°C° 0 mm 9 mps 734 mmHg 49%
    13:00 +18°C° 0 mm 10 mps 733 mmHg 48%
    14:00 +21°C° 0 mm 9 mps 731 mmHg 44%
    15:00 +20°C° 0.1 mm 8 mps 730 mmHg 47%
    16:00 +20°C° 0.1 mm 8 mps 729 mmHg 50%
    17:00 +18°C° 0.1 mm 8 mps 728 mmHg 53%
    18:00 +17°C° 0.7 mm 8 mps 728 mmHg 58%
    19:00 +15°C° 0.7 mm 8 mps 728 mmHg 62%
    20:00 +14°C° 0.7 mm 7 mps 727 mmHg 66%
    21:00 +11°C° 0 mm 8 mps 728 mmHg 66%
    22:00 +10°C° 0 mm 8 mps 729 mmHg 66%
    23:00 +7°C° 0 mm 8 mps 729 mmHg 66%

    Tomorrow, 22 April, Sunday

    Time Temperature Precipitation Wind Pressure Humidity
    00:00 +6°C° 0 mm 8 mps 730 mmHg 67%
    01:00 +5°C° 0 mm 7 mps 730 mmHg 68%
    02:00 +4°C° 0 mm 7 mps 731 mmHg 69%
    03:00 +4°C° 0 mm 7 mps 731 mmHg 71%
    04:00 +4°C° 0 mm 7 mps 731 mmHg 73%
    05:00 +4°C° 0 mm 7 mps 731 mmHg 75%
    06:00 +4°C° 0.1 mm 7 mps 732 mmHg 73%
    07:00 +5°C° 0.1 mm 8 mps 732 mmHg 70%
    08:00 +6°C° 0.1 mm 8 mps 732 mmHg 67%
    09:00 +6°C° 0.3 mm 8 mps 732 mmHg 65%
    10:00 +7°C° 0.3 mm 8 mps 732 mmHg 62%
    11:00 +7°C° 0.3 mm 8 mps 732 mmHg 60%
    12:00 +7°C° 0.5 mm 8 mps 733 mmHg 61%
    13:00 +7°C° 0.5 mm 8 mps 733 mmHg 61%
    14:00 +7°C° 0.5 mm 8 mps 733 mmHg 62%
    15:00 +8°C° 0.4 mm 7 mps 734 mmHg 63%
    16:00 +8°C° 0.4 mm 7 mps 734 mmHg 63%
    17:00 +6°C° 0.4 mm 7 mps 734 mmHg 64%
    18:00 +6°C° 0.1 mm 5 mps 735 mmHg 68%
    19:00 +5°C° 0.1 mm 4 mps 735 mmHg 71%
    20:00 +4°C° 0.1 mm 3 mps 736 mmHg 75%
    21:00 +3°C° 0 mm 3 mps 736 mmHg 75%
    22:00 +3°C° 0 mm 3 mps 737 mmHg 75%
    23:00 +2°C° 0 mm 3 mps 737 mmHg 74%

    Day after tomorrow, 23 April, Monday

    Time Temperature Precipitation Wind Pressure Humidity
    00:00 +2°C° 0 mm 3 mps 738 mmHg 75%
    01:00 +1°C° 0 mm 3 mps 738 mmHg 76%
    02:00 0°C° 0 mm 3 mps 738 mmHg 77%
    03:00 -1°C° 0 mm 4 mps 739 mmHg 77%
    04:00 -2°C° 0 mm 4 mps 739 mmHg 76%
    05:00 -2°C° 0 mm 4 mps 740 mmHg 76%
    06:00 -1°C° 0 mm 4 mps 740 mmHg 68%
    07:00 0°C° 0 mm 5 mps 741 mmHg 60%
    08:00 0°C° 0 mm 5 mps 741 mmHg 52%
    09:00 +1°C° 0 mm 5 mps 741 mmHg 49%
    10:00 +2°C° 0 mm 5 mps 741 mmHg 46%
    11:00 +3°C° 0 mm 5 mps 742 mmHg 43%
    12:00 +5°C° 0 mm 5 mps 742 mmHg 42%
    13:00 +6°C° 0 mm 5 mps 742 mmHg 41%
    14:00 +6°C° 0 mm 5 mps 742 mmHg 40%
    15:00 +6°C° 0 mm 5 mps 742 mmHg 41%
    16:00 +6°C° 0 mm 4 mps 742 mmHg 42%
    17:00 +6°C° 0 mm 4 mps 742 mmHg 43%
    18:00 +5°C° 0 mm 3 mps 742 mmHg 48%
    19:00 +5°C° 0 mm 2 mps 742 mmHg 52%
    20:00 +3°C° 0 mm 2 mps 743 mmHg 57%
    21:00 +4°C° 0 mm 1 mps 743 mmHg 58%
    22:00 +3°C° 0 mm 1 mps 743 mmHg 60%
    23:00 +3°C° 0 mm 1 mps 743 mmHg 61%

    24 April, Tuesday

    Time Temperature Precipitation Wind Pressure Humidity
    00:00 +3°C° 0 mm 1 mps 743 mmHg 62%
    01:00 +2°C° 0 mm 1 mps 743 mmHg 62%
    02:00 +2°C° 0 mm 1 mps 743 mmHg 63%
    03:00 +2°C° 0 mm 1 mps 743 mmHg 63%
    04:00 +2°C° 0 mm 1 mps 744 mmHg 64%
    05:00 +2°C° 0 mm 1 mps 744 mmHg 64%
    06:00 +4°C° 0 mm 1 mps 744 mmHg 58%
    07:00 +6°C° 0 mm 1 mps 744 mmHg 53%
    08:00 +6°C° 0 mm 2 mps 744 mmHg 47%
    09:00 +7°C° 0 mm 2 mps 743 mmHg 43%
    10:00 +8°C° 0 mm 2 mps 743 mmHg 40%
    11:00 +9°C° 0 mm 3 mps 743 mmHg 36%
    12:00 +10°C° 0 mm 3 mps 743 mmHg 36%
    13:00 +11°C° 0 mm 3 mps 742 mmHg 36%
    14:00 +11°C° 0 mm 3 mps 742 mmHg 36%
    15:00 +11°C° 0 mm 3 mps 742 mmHg 40%
    16:00 +11°C° 0 mm 3 mps 741 mmHg 44%
    17:00 +12°C° 0 mm 2 mps 741 mmHg 48%
    18:00 +10°C° 0 mm 2 mps 741 mmHg 53%
    19:00 +9°C° 0 mm 2 mps 741 mmHg 59%
    20:00 +8°C° 0 mm 2 mps 741 mmHg 65%
    21:00 +8°C° 0.1 mm 3 mps 741 mmHg 69%
    22:00 +8°C° 0.1 mm 3 mps 741 mmHg 74%
    23:00 +8°C° 0.1 mm 3 mps 740 mmHg 78%

    25 April, Wednesday

    Time Temperature Precipitation Wind Pressure Humidity
    00:00 +7°C° 0.3 mm 4 mps 740 mmHg 81%
    01:00 +7°C° 0.3 mm 4 mps 740 mmHg 84%
    02:00 +6°C° 0.3 mm 5 mps 739 mmHg 86%
    03:00 +6°C° 0.6 mm 5 mps 739 mmHg 88%
    04:00 +6°C° 0.6 mm 5 mps 739 mmHg 90%
    05:00 +5°C° 0.6 mm 6 mps 739 mmHg 91%
    06:00 +7°C° 0.3 mm 5 mps 738 mmHg 90%
    07:00 +7°C° 0.3 mm 5 mps 738 mmHg 89%
    08:00 +8°C° 0.3 mm 5 mps 738 mmHg 87%
    09:00 +9°C° 0 mm 5 mps 738 mmHg 81%
    10:00 +10°C° 0 mm 6 mps 738 mmHg 74%
    11:00 +11°C° 0 mm 6 mps 738 mmHg 68%
    12:00 +11°C° 0.3 mm 6 mps 738 mmHg 70%
    13:00 +11°C° 0.3 mm 6 mps 737 mmHg 72%
    14:00 +11°C° 0.3 mm 6 mps 737 mmHg 74%
    15:00 +11°C° 0.6 mm 6 mps 737 mmHg 71%
    16:00 +11°C° 0.6 mm 6 mps 737 mmHg 68%
    17:00 +11°C° 0.6 mm 6 mps 737 mmHg 64%
    18:00 +10°C° 0 mm 6 mps 737 mmHg 68%
    19:00 +8°C° 0 mm 5 mps 738 mmHg 72%
    20:00 +7°C° 0 mm 4 mps 738 mmHg 75%
    21:00 +6°C° 0 mm 4 mps 739 mmHg 77%
    22:00 +6°C° 0 mm 4 mps 739 mmHg 79%
    23:00 +5°C° 0 mm 4 mps 740 mmHg 81%

    26 April, Thursday

    Time Temperature Precipitation Wind Pressure Humidity
    00:00 +5°C° 0 mm 3 mps 740 mmHg 82%
    01:00 +4°C° 0 mm 3 mps 740 mmHg 84%
    02:00 +4°C° 0 mm 3 mps 740 mmHg 85%
    03:00 +4°C° 0 mm 3 mps 740 mmHg 85%
    04:00 +4°C° 0 mm 3 mps 740 mmHg 85%
    05:00 +4°C° 0 mm 3 mps 740 mmHg 85%
    06:00 +6°C° 0 mm 4 mps 739 mmHg 81%
    07:00 +8°C° 0 mm 5 mps 739 mmHg 76%
    08:00 +10°C° 0 mm 6 mps 738 mmHg 72%
    09:00 +12°C° 0.1 mm 7 mps 738 mmHg 71%
    10:00 +13°C° 0.1 mm 8 mps 737 mmHg 71%
    11:00 +16°C° 0.1 mm 8 mps 737 mmHg 70%
    12:00 +16°C° 0.1 mm 8 mps 736 mmHg 71%
    13:00 +16°C° 0.1 mm 7 mps 736 mmHg 72%
    14:00 +17°C° 0.1 mm 7 mps 736 mmHg 73%
    15:00 +17°C° 0 mm 6 mps 736 mmHg 71%
    16:00 +17°C° 0 mm 5 mps 736 mmHg 68%
    17:00 +19°C° 0 mm 4 mps 736 mmHg 66%
    18:00 +17°C° 0 mm 4 mps 737 mmHg 69%
    19:00 +15°C° 0 mm 4 mps 738 mmHg 73%
    20:00 +13°C° 0 mm 4 mps 738 mmHg 77%
    21:00 +12°C° 0 mm 3 mps 739 mmHg 78%
    22:00 +11°C° 0 mm 3 mps 739 mmHg 80%
    23:00 +10°C° 0 mm 3 mps 740 mmHg 82%
    Show more